Location: Ansan
(43.6898°N, 0.7731°E)
Time: 12:03:00
(UTC+00:00)

Cosmos 1802 Rocket - Pass Details

Date: 15 May 2026
Orbit: 953 x 1011 km, 82.9° (Epoch: 5 June)

Event Time Altitude Azimuth Distance (km) Brightness Sun altitude
Rises 19:41:09 0° 177° (S) 3,647 6.6 -4.9°
Reaches altitude 10° 19:43:40 10° 174° (S) 2,696 6.0 -5.3°
Maximum altitude 19:49:46 66° 94° (E) 1,040 4.0 -6.2°
Drops below altitude 10° 19:55:51 10° 13° (NNE) 2,691 6.6 -7.1°
Sets 19:58:21 0° 11° (N) 3,640 7.3 -7.5°
